When you browse on this site, cookies collect data to enhance your experience and personalize the content and advertising you see.
Visit our Privacy Policy to learn more. By continuing to use the site, you agree to this use of cookies and data.
  • în România
  • Lista ţărilor
  • Pe 7 zile
  • Temperatura apei
  • Meteo pe hartă
  • Widget-uri
  • user-avatar
    Intrare

    Meteo pe oră la Tarnów

    Astăzi, 29 Ianuarie, Miercuri

    Timp Temperatura Precipitaţii Vânt Presiune Umiditate
    00:00 +1°C° 0 mm 3 m/s 731 mmHg 86%
    01:00 +2°C° 0 mm 3 m/s 731 mmHg 84%
    02:00 0°C° 0 mm 4 m/s 731 mmHg 84%
    03:00 0°C° 0 mm 5 m/s 731 mmHg 84%
    04:00 0°C° 0 mm 5 m/s 731 mmHg 84%
    05:00 -1°C° 0 mm 5 m/s 732 mmHg 83%
    06:00 -1°C° 0 mm 5 m/s 732 mmHg 82%
    07:00 -2°C° 0 mm 4 m/s 733 mmHg 82%
    08:00 -1°C° 0 mm 5 m/s 733 mmHg 76%
    09:00 -1°C° 0 mm 6 m/s 733 mmHg 70%
    10:00 0°C° 0 mm 7 m/s 733 mmHg 65%
    11:00 0°C° 0 mm 7 m/s 733 mmHg 66%
    12:00 0°C° 0 mm 7 m/s 734 mmHg 67%
    13:00 0°C° 0 mm 7 m/s 734 mmHg 67%
    14:00 0°C° 0 mm 7 m/s 734 mmHg 69%
    15:00 +1°C° 0 mm 6 m/s 734 mmHg 70%
    16:00 +1°C° 0 mm 5 m/s 734 mmHg 72%
    17:00 0°C° 0 mm 5 m/s 734 mmHg 76%
    18:00 0°C° 0 mm 5 m/s 735 mmHg 80%
    19:00 -1°C° 0 mm 5 m/s 735 mmHg 84%
    20:00 -1°C° 0 mm 5 m/s 736 mmHg 86%
    21:00 -1°C° 0 mm 5 m/s 736 mmHg 88%
    22:00 -1°C° 0 mm 5 m/s 736 mmHg 90%
    23:00 -1°C° 0 mm 5 m/s 736 mmHg 88%

    Mâine, 30 Ianuarie, Joi

    Timp Temperatura Precipitaţii Vânt Presiune Umiditate
    00:00 -1°C° 0 mm 5 m/s 737 mmHg 87%
    01:00 -1°C° 0 mm 5 m/s 737 mmHg 86%
    02:00 -2°C° 0.1 mm 6 m/s 738 mmHg 87%
    03:00 -2°C° 0.1 mm 6 m/s 738 mmHg 89%
    04:00 -2°C° 0.1 mm 7 m/s 738 mmHg 91%
    05:00 -2°C° 0.1 mm 7 m/s 738 mmHg 91%
    06:00 -2°C° 0.1 mm 7 m/s 739 mmHg 92%
    07:00 -2°C° 0.1 mm 7 m/s 739 mmHg 92%
    08:00 -1°C° 0 mm 7 m/s 739 mmHg 86%
    09:00 -1°C° 0 mm 7 m/s 739 mmHg 80%
    10:00 0°C° 0 mm 7 m/s 739 mmHg 73%
    11:00 0°C° 0 mm 7 m/s 739 mmHg 69%
    12:00 +2°C° 0 mm 7 m/s 739 mmHg 64%
    13:00 +2°C° 0 mm 6 m/s 739 mmHg 60%
    14:00 +2°C° 0 mm 5 m/s 739 mmHg 64%
    15:00 +3°C° 0 mm 4 m/s 739 mmHg 68%
    16:00 +2°C° 0 mm 3 m/s 738 mmHg 72%
    17:00 +1°C° 0.1 mm 4 m/s 738 mmHg 78%
    18:00 +1°C° 0.1 mm 4 m/s 738 mmHg 84%
    19:00 0°C° 0.1 mm 4 m/s 738 mmHg 89%
    20:00 +1°C° 0.1 mm 4 m/s 738 mmHg 89%
    21:00 +1°C° 0.1 mm 4 m/s 737 mmHg 89%
    22:00 +1°C° 0.1 mm 4 m/s 737 mmHg 89%
    23:00 +1°C° 0 mm 4 m/s 737 mmHg 87%

    Poimâine, 31 Ianuarie, Vineri

    Timp Temperatura Precipitaţii Vânt Presiune Umiditate
    00:00 +1°C° 0 mm 4 m/s 737 mmHg 85%
    01:00 +1°C° 0 mm 4 m/s 736 mmHg 83%
    02:00 +2°C° 0 mm 3 m/s 736 mmHg 82%
    03:00 +2°C° 0 mm 3 m/s 735 mmHg 81%
    04:00 +1°C° 0 mm 3 m/s 734 mmHg 80%
    05:00 +1°C° 1.3 mm 4 m/s 734 mmHg 83%
    06:00 +1°C° 1.3 mm 4 m/s 733 mmHg 86%
    07:00 +1°C° 1.3 mm 5 m/s 732 mmHg 90%
    08:00 +2°C° 1.2 mm 5 m/s 732 mmHg 90%
    09:00 +3°C° 1.2 mm 6 m/s 732 mmHg 91%
    10:00 +4°C° 1.2 mm 6 m/s 731 mmHg 91%
    11:00 +5°C° 0.8 mm 7 m/s 732 mmHg 87%
    12:00 +5°C° 0.8 mm 7 m/s 732 mmHg 83%
    13:00 +6°C° 0.8 mm 8 m/s 733 mmHg 79%
    14:00 +6°C° 0.1 mm 8 m/s 734 mmHg 79%
    15:00 +5°C° 0.1 mm 7 m/s 735 mmHg 80%
    16:00 +5°C° 0.1 mm 6 m/s 736 mmHg 80%
    17:00 +5°C° 0 mm 6 m/s 736 mmHg 82%
    18:00 +5°C° 0 mm 5 m/s 737 mmHg 83%
    19:00 +5°C° 0 mm 5 m/s 738 mmHg 85%
    20:00 +4°C° 0 mm 4 m/s 739 mmHg 86%
    21:00 +4°C° 0 mm 4 m/s 739 mmHg 88%
    22:00 +4°C° 0 mm 3 m/s 739 mmHg 89%
    23:00 +4°C° 0 mm 3 m/s 740 mmHg 89%

    1 Februarie, Sâmbătă

    Timp Temperatura Precipitaţii Vânt Presiune Umiditate
    00:00 +4°C° 0 mm 3 m/s 740 mmHg 88%
    01:00 +4°C° 0 mm 3 m/s 740 mmHg 87%
    02:00 +4°C° 0 mm 3 m/s 740 mmHg 85%
    03:00 +4°C° 0 mm 3 m/s 740 mmHg 84%
    04:00 +4°C° 0 mm 3 m/s 740 mmHg 82%
    05:00 +5°C° 0 mm 3 m/s 740 mmHg 81%
    06:00 +5°C° 0 mm 3 m/s 740 mmHg 80%
    07:00 +5°C° 0 mm 3 m/s 740 mmHg 79%
    08:00 +5°C° 0 mm 3 m/s 740 mmHg 78%
    09:00 +7°C° 0 mm 3 m/s 740 mmHg 78%
    10:00 +7°C° 0 mm 3 m/s 739 mmHg 77%
    11:00 +8°C° 0 mm 3 m/s 739 mmHg 76%
    12:00 +8°C° 0 mm 4 m/s 739 mmHg 74%
    13:00 +8°C° 0 mm 4 m/s 739 mmHg 73%
    14:00 +8°C° 0 mm 4 m/s 738 mmHg 75%
    15:00 +7°C° 0 mm 4 m/s 738 mmHg 77%
    16:00 +7°C° 0 mm 4 m/s 737 mmHg 79%
    17:00 +6°C° 0 mm 4 m/s 737 mmHg 80%
    18:00 +6°C° 0 mm 5 m/s 737 mmHg 81%
    19:00 +6°C° 0 mm 5 m/s 737 mmHg 83%
    20:00 +6°C° 0.2 mm 5 m/s 736 mmHg 83%
    21:00 +6°C° 0.2 mm 5 m/s 736 mmHg 83%
    22:00 +6°C° 0.2 mm 5 m/s 735 mmHg 84%
    23:00 +7°C° 0.2 mm 5 m/s 735 mmHg 84%

    2 Februarie, Duminică

    Timp Temperatura Precipitaţii Vânt Presiune Umiditate
    00:00 +7°C° 0.2 mm 5 m/s 735 mmHg 84%
    01:00 +7°C° 0.2 mm 5 m/s 734 mmHg 84%
    02:00 +7°C° 0.4 mm 6 m/s 735 mmHg 81%
    03:00 +6°C° 0.4 mm 8 m/s 735 mmHg 78%
    04:00 +5°C° 0.4 mm 10 m/s 735 mmHg 75%
    05:00 +5°C° 0 mm 9 m/s 736 mmHg 73%
    06:00 +3°C° 0 mm 9 m/s 737 mmHg 71%
    07:00 +4°C° 0 mm 8 m/s 738 mmHg 69%
    08:00 +4°C° 0 mm 8 m/s 739 mmHg 70%
    09:00 +3°C° 0 mm 9 m/s 740 mmHg 72%
    10:00 +3°C° 0 mm 9 m/s 740 mmHg 74%
    11:00 +2°C° 0.1 mm 9 m/s 740 mmHg 77%
    12:00 +2°C° 0.1 mm 9 m/s 741 mmHg 80%
    13:00 +2°C° 0.1 mm 9 m/s 741 mmHg 83%
    14:00 +4°C° 0 mm 8 m/s 741 mmHg 79%
    15:00 +4°C° 0 mm 7 m/s 741 mmHg 76%
    16:00 +4°C° 0 mm 7 m/s 741 mmHg 73%
    17:00 +4°C° 0 mm 6 m/s 741 mmHg 74%
    18:00 +3°C° 0 mm 5 m/s 742 mmHg 76%
    19:00 +3°C° 0 mm 5 m/s 742 mmHg 78%
    20:00 +3°C° 0 mm 5 m/s 742 mmHg 78%
    21:00 +3°C° 0 mm 5 m/s 742 mmHg 79%
    22:00 +3°C° 0 mm 5 m/s 742 mmHg 79%
    23:00 +3°C° 0 mm 5 m/s 741 mmHg 81%

    3 Februarie, Luni

    Timp Temperatura Precipitaţii Vânt Presiune Umiditate
    00:00 +4°C° 0 mm 4 m/s 741 mmHg 84%
    01:00 +4°C° 0 mm 4 m/s 741 mmHg 86%
    02:00 +4°C° 0.2 mm 4 m/s 741 mmHg 87%
    03:00 +4°C° 0.2 mm 4 m/s 740 mmHg 88%
    04:00 +4°C° 0.2 mm 3 m/s 740 mmHg 89%
    05:00 +5°C° 0.4 mm 4 m/s 740 mmHg 89%
    06:00 +5°C° 0.4 mm 4 m/s 740 mmHg 89%
    07:00 +6°C° 0.4 mm 5 m/s 740 mmHg 89%
    08:00 +5°C° 0.2 mm 6 m/s 741 mmHg 86%
    09:00 +6°C° 0.2 mm 7 m/s 741 mmHg 82%
    10:00 +8°C° 0.2 mm 7 m/s 741 mmHg 79%
    11:00 +8°C° 0.1 mm 7 m/s 741 mmHg 76%
    12:00 +8°C° 0.1 mm 7 m/s 741 mmHg 74%
    13:00 +8°C° 0.1 mm 7 m/s 741 mmHg 71%
    14:00 +7°C° 0 mm 6 m/s 741 mmHg 73%
    15:00 +7°C° 0 mm 5 m/s 742 mmHg 75%
    16:00 +6°C° 0 mm 4 m/s 742 mmHg 76%
    17:00 +6°C° 0 mm 4 m/s 742 mmHg 80%
    18:00 +7°C° 0 mm 3 m/s 742 mmHg 83%
    19:00 +7°C° 0 mm 3 m/s 742 mmHg 87%
    20:00 +6°C° 0.1 mm 2 m/s 742 mmHg 88%
    21:00 +6°C° 0.1 mm 2 m/s 741 mmHg 89%
    22:00 +6°C° 0.1 mm 2 m/s 741 mmHg 91%
    23:00 +5°C° 0.6 mm 3 m/s 740 mmHg 91%
    Arată mai mult